Il 0% ha trovato utile questo documento (0 voti)
4 visualizzazioni7 pagine

ID Date/time Temperature (°C) Humidity (%RH)

Il documento presenta una serie di dati di temperatura e umidità registrati in un intervallo di tempo dal 5 al 6 settembre 2023. Le temperature variano da 21.80 °C a 19.80 °C, mentre l'umidità oscilla tra il 42.00% e il 35.70%. I dati sono organizzati in un formato tabellare con timestamp specifici per ogni registrazione.

Caricato da

indonnie9
Copyright
© All Rights Reserved
Per noi i diritti sui contenuti sono una cosa seria. Se sospetti che questo contenuto sia tuo, rivendicalo qui.
Formati disponibili
Scarica in formato PDF, TXT o leggi online su Scribd
Il 0% ha trovato utile questo documento (0 voti)
4 visualizzazioni7 pagine

ID Date/time Temperature (°C) Humidity (%RH)

Il documento presenta una serie di dati di temperatura e umidità registrati in un intervallo di tempo dal 5 al 6 settembre 2023. Le temperature variano da 21.80 °C a 19.80 °C, mentre l'umidità oscilla tra il 42.00% e il 35.70%. I dati sono organizzati in un formato tabellare con timestamp specifici per ogni registrazione.

Caricato da

indonnie9
Copyright
© All Rights Reserved
Per noi i diritti sui contenuti sono una cosa seria. Se sospetti che questo contenuto sia tuo, rivendicalo qui.
Formati disponibili
Scarica in formato PDF, TXT o leggi online su Scribd

Page 1/7

9/8/2023 2:54:45 PM

ID Date/time Temperature [°C] Humidity [%rH]

1 9/5/2023 2:11:00 PM 21.80 42.00

2 9/5/2023 2:26:00 PM 21.30 42.50

3 9/5/2023 2:41:00 PM 21.20 42.50

4 9/5/2023 2:56:00 PM 21.10 42.60

5 9/5/2023 3:11:00 PM 21.10 42.30

6 9/5/2023 3:26:00 PM 21.10 42.00

7 9/5/2023 3:41:00 PM 21.20 41.70

8 9/5/2023 3:56:00 PM 21.20 41.50

9 9/5/2023 4:11:00 PM 21.20 41.40

10 9/5/2023 4:26:00 PM 21.20 41.30

11 9/5/2023 4:41:00 PM 21.20 41.10

12 9/5/2023 4:56:00 PM 21.20 41.00

13 9/5/2023 5:11:00 PM 21.30 40.80

14 9/5/2023 5:26:00 PM 21.30 40.60

15 9/5/2023 5:41:00 PM 21.20 40.30

16 9/5/2023 5:56:00 PM 21.20 40.10

17 9/5/2023 6:11:00 PM 21.20 40.00

18 9/5/2023 6:26:00 PM 21.20 39.80

19 9/5/2023 6:41:00 PM 21.20 39.80

20 9/5/2023 6:56:00 PM 21.20 39.80

21 9/5/2023 7:11:00 PM 21.10 39.70

22 9/5/2023 7:26:00 PM 21.10 39.60

23 9/5/2023 7:41:00 PM 21.10 39.50

24 9/5/2023 7:56:00 PM 21.10 39.30

25 9/5/2023 8:11:00 PM 21.10 39.10

26 9/5/2023 8:26:00 PM 21.00 39.10

27 9/5/2023 8:41:00 PM 21.00 39.00

28 9/5/2023 8:56:00 PM 21.00 38.90

29 9/5/2023 9:11:00 PM 21.00 38.80

30 9/5/2023 9:26:00 PM 20.90 38.60

31 9/5/2023 9:41:00 PM 20.90 38.60


Page 2/7
9/8/2023 2:54:45 PM

ID Date/time Temperature [°C] Humidity [%rH]

32 9/5/2023 9:56:00 PM 20.90 38.50

33 9/5/2023 10:11:00 PM 20.90 38.50

34 9/5/2023 10:26:00 PM 20.90 38.40

35 9/5/2023 10:41:00 PM 20.80 38.30

36 9/5/2023 10:56:00 PM 20.80 38.20

37 9/5/2023 11:11:00 PM 20.80 38.00

38 9/5/2023 11:26:00 PM 20.70 38.00

39 9/5/2023 11:41:00 PM 20.70 37.80

40 9/5/2023 11:56:00 PM 20.70 37.80

41 9/6/2023 12:11:00 AM 20.70 37.70

42 9/6/2023 12:26:00 AM 20.60 37.60

43 9/6/2023 12:41:00 AM 20.60 37.50

44 9/6/2023 12:56:00 AM 20.60 37.20

45 9/6/2023 1:11:00 AM 20.60 37.20

46 9/6/2023 1:26:00 AM 20.50 36.90

47 9/6/2023 1:41:00 AM 20.50 36.90

48 9/6/2023 1:56:00 AM 20.40 36.70

49 9/6/2023 2:11:00 AM 20.40 36.60

50 9/6/2023 2:26:00 AM 20.40 36.50

51 9/6/2023 2:41:00 AM 20.40 36.30

52 9/6/2023 2:56:00 AM 20.30 36.20

53 9/6/2023 3:11:00 AM 20.30 36.20

54 9/6/2023 3:26:00 AM 20.20 36.20

55 9/6/2023 3:41:00 AM 20.20 36.20

56 9/6/2023 3:56:00 AM 20.20 36.00

57 9/6/2023 4:11:00 AM 20.20 35.90

58 9/6/2023 4:26:00 AM 20.10 35.80

59 9/6/2023 4:41:00 AM 20.10 35.90

60 9/6/2023 4:56:00 AM 20.10 35.80

61 9/6/2023 5:11:00 AM 20.00 35.80

62 9/6/2023 5:26:00 AM 20.00 35.70

63 9/6/2023 5:41:00 AM 20.00 35.70

64 9/6/2023 5:56:00 AM 19.90 35.70

65 9/6/2023 6:11:00 AM 19.90 35.70

66 9/6/2023 6:26:00 AM 19.90 35.60

67 9/6/2023 6:41:00 AM 19.80 35.60

68 9/6/2023 6:56:00 AM 19.80 35.70

69 9/6/2023 7:11:00 AM 19.80 35.90

70 9/6/2023 7:26:00 AM 19.80 36.10

71 9/6/2023 7:41:00 AM 19.80 36.20

72 9/6/2023 7:56:00 AM 19.80 36.50

73 9/6/2023 8:11:00 AM 19.80 36.70

74 9/6/2023 8:26:00 AM 19.80 37.00

75 9/6/2023 8:41:00 AM 19.90 37.30

76 9/6/2023 8:56:00 AM 20.00 37.60


Page 3/7
9/8/2023 2:54:45 PM

ID Date/time Temperature [°C] Humidity [%rH]

77 9/6/2023 9:11:00 AM 20.00 37.80

78 9/6/2023 9:26:00 AM 20.10 38.00

79 9/6/2023 9:41:00 AM 20.20 38.40

80 9/6/2023 9:56:00 AM 20.20 38.60

81 9/6/2023 10:11:00 AM 20.30 38.90

82 9/6/2023 10:26:00 AM 20.40 39.10

83 9/6/2023 10:41:00 AM 20.40 39.20

84 9/6/2023 10:56:00 AM 20.50 39.30

85 9/6/2023 11:11:00 AM 20.60 39.50

86 9/6/2023 11:26:00 AM 20.60 39.80

87 9/6/2023 11:41:00 AM 20.70 40.00

88 9/6/2023 11:56:00 AM 20.80 40.20

89 9/6/2023 12:11:00 PM 20.90 40.40

90 9/6/2023 12:26:00 PM 20.90 40.50

91 9/6/2023 12:41:00 PM 21.00 40.60

92 9/6/2023 12:56:00 PM 21.10 40.80

93 9/6/2023 1:11:00 PM 21.10 40.80

94 9/6/2023 1:26:00 PM 21.20 40.90

95 9/6/2023 1:41:00 PM 21.20 40.90

96 9/6/2023 1:56:00 PM 21.30 41.00

97 9/6/2023 2:11:00 PM 21.30 42.10

98 9/6/2023 2:26:00 PM 21.40 42.60

99 9/6/2023 2:41:00 PM 21.40 42.70

100 9/6/2023 2:56:00 PM 21.40 41.90

101 9/6/2023 3:11:00 PM 21.30 41.60

102 9/6/2023 3:26:00 PM 21.10 41.30

103 9/6/2023 3:41:00 PM 21.00 41.10

104 9/6/2023 3:56:00 PM 21.00 41.00

105 9/6/2023 4:11:00 PM 21.00 41.00

106 9/6/2023 4:26:00 PM 20.90 40.90

107 9/6/2023 4:41:00 PM 20.90 40.70

108 9/6/2023 4:56:00 PM 20.90 40.50

109 9/6/2023 5:11:00 PM 20.90 40.30

110 9/6/2023 5:26:00 PM 20.80 40.20

111 9/6/2023 5:41:00 PM 20.80 40.00

112 9/6/2023 5:56:00 PM 20.80 39.90

113 9/6/2023 6:11:00 PM 20.80 39.70

114 9/6/2023 6:26:00 PM 20.70 39.50

115 9/6/2023 6:41:00 PM 20.70 39.40

116 9/6/2023 6:56:00 PM 20.60 39.20

117 9/6/2023 7:11:00 PM 20.60 39.10

118 9/6/2023 7:26:00 PM 20.60 38.90

119 9/6/2023 7:41:00 PM 20.50 38.80

120 9/6/2023 7:56:00 PM 20.50 38.60

121 9/6/2023 8:11:00 PM 20.40 38.50


Page 4/7
9/8/2023 2:54:45 PM

ID Date/time Temperature [°C] Humidity [%rH]

122 9/6/2023 8:26:00 PM 20.40 38.40

123 9/6/2023 8:41:00 PM 20.40 38.40

124 9/6/2023 8:56:00 PM 20.30 38.20

125 9/6/2023 9:11:00 PM 20.30 38.10

126 9/6/2023 9:26:00 PM 20.20 38.00

127 9/6/2023 9:41:00 PM 20.20 37.90

128 9/6/2023 9:56:00 PM 20.20 37.90

129 9/6/2023 10:11:00 PM 20.20 37.80

130 9/6/2023 10:26:00 PM 20.30 37.80

131 9/6/2023 10:41:00 PM 20.40 37.80

132 9/6/2023 10:56:00 PM 20.40 37.70

133 9/6/2023 11:11:00 PM 20.50 37.60

134 9/6/2023 11:26:00 PM 20.50 37.60

135 9/6/2023 11:41:00 PM 20.50 37.60

136 9/6/2023 11:56:00 PM 20.50 37.60

137 9/7/2023 12:11:00 AM 20.50 37.50

138 9/7/2023 12:26:00 AM 20.50 37.40

139 9/7/2023 12:41:00 AM 20.50 37.40

140 9/7/2023 12:56:00 AM 20.50 37.40

141 9/7/2023 1:11:00 AM 20.40 37.40

142 9/7/2023 1:26:00 AM 20.40 37.30

143 9/7/2023 1:41:00 AM 20.40 37.30

144 9/7/2023 1:56:00 AM 20.40 37.30

145 9/7/2023 2:11:00 AM 20.40 37.30

146 9/7/2023 2:26:00 AM 20.40 37.20

147 9/7/2023 2:41:00 AM 20.40 37.20

148 9/7/2023 2:56:00 AM 20.30 37.20

149 9/7/2023 3:11:00 AM 20.30 37.30

150 9/7/2023 3:26:00 AM 20.30 37.30

151 9/7/2023 3:41:00 AM 20.30 37.20

152 9/7/2023 3:56:00 AM 20.30 37.20

153 9/7/2023 4:11:00 AM 20.30 37.20

154 9/7/2023 4:26:00 AM 20.20 37.20

155 9/7/2023 4:41:00 AM 20.20 37.10

156 9/7/2023 4:56:00 AM 20.20 37.10

157 9/7/2023 5:11:00 AM 20.20 37.00

158 9/7/2023 5:26:00 AM 20.10 36.90

159 9/7/2023 5:41:00 AM 20.10 36.90

160 9/7/2023 5:56:00 AM 20.10 36.80

161 9/7/2023 6:11:00 AM 20.00 36.80

162 9/7/2023 6:26:00 AM 20.00 36.70

163 9/7/2023 6:41:00 AM 20.00 36.70

164 9/7/2023 6:56:00 AM 20.00 36.80

165 9/7/2023 7:11:00 AM 20.00 36.90

166 9/7/2023 7:26:00 AM 20.00 37.10


Page 5/7
9/8/2023 2:54:45 PM

ID Date/time Temperature [°C] Humidity [%rH]

167 9/7/2023 7:41:00 AM 20.00 37.20

168 9/7/2023 7:56:00 AM 20.00 37.40

169 9/7/2023 8:11:00 AM 20.00 37.60

170 9/7/2023 8:26:00 AM 20.10 37.80

171 9/7/2023 8:41:00 AM 20.10 38.10

172 9/7/2023 8:56:00 AM 20.10 38.40

173 9/7/2023 9:11:00 AM 20.20 38.60

174 9/7/2023 9:26:00 AM 20.30 39.00

175 9/7/2023 9:41:00 AM 20.40 39.40

176 9/7/2023 9:56:00 AM 20.40 39.40

177 9/7/2023 10:11:00 AM 20.50 39.50

178 9/7/2023 10:26:00 AM 20.50 39.70

179 9/7/2023 10:41:00 AM 20.60 39.70

180 9/7/2023 10:56:00 AM 20.70 39.90

181 9/7/2023 11:11:00 AM 20.70 40.10

182 9/7/2023 11:26:00 AM 20.80 40.30

183 9/7/2023 11:41:00 AM 20.90 40.40

184 9/7/2023 11:56:00 AM 21.00 40.70

185 9/7/2023 12:11:00 PM 21.00 40.80

186 9/7/2023 12:26:00 PM 21.10 41.00

187 9/7/2023 12:41:00 PM 21.20 41.10

188 9/7/2023 12:56:00 PM 21.20 41.20

189 9/7/2023 1:11:00 PM 21.30 41.30

190 9/7/2023 1:26:00 PM 21.40 41.40

191 9/7/2023 1:41:00 PM 21.40 41.50

192 9/7/2023 1:56:00 PM 21.50 42.00

193 9/7/2023 2:11:00 PM 21.50 41.50

194 9/7/2023 2:26:00 PM 21.40 41.10

195 9/7/2023 2:41:00 PM 21.50 41.00

196 9/7/2023 2:56:00 PM 21.50 40.90

197 9/7/2023 3:11:00 PM 21.50 40.80

198 9/7/2023 3:26:00 PM 21.50 40.80

199 9/7/2023 3:41:00 PM 21.50 40.70

200 9/7/2023 3:56:00 PM 21.50 40.60

201 9/7/2023 4:11:00 PM 21.60 40.60

202 9/7/2023 4:26:00 PM 21.60 41.00

203 9/7/2023 4:41:00 PM 21.60 40.90

204 9/7/2023 4:56:00 PM 21.60 40.70

205 9/7/2023 5:11:00 PM 21.70 40.60

206 9/7/2023 5:26:00 PM 21.70 40.40

207 9/7/2023 5:41:00 PM 21.60 40.30

208 9/7/2023 5:56:00 PM 21.60 40.20

209 9/7/2023 6:11:00 PM 21.60 40.10

210 9/7/2023 6:26:00 PM 21.60 40.00

211 9/7/2023 6:41:00 PM 21.60 39.90


Page 6/7
9/8/2023 2:54:45 PM

ID Date/time Temperature [°C] Humidity [%rH]

212 9/7/2023 6:56:00 PM 21.60 39.80

213 9/7/2023 7:11:00 PM 21.60 39.70

214 9/7/2023 7:26:00 PM 21.60 39.60

215 9/7/2023 7:41:00 PM 21.60 39.50

216 9/7/2023 7:56:00 PM 21.60 39.40

217 9/7/2023 8:11:00 PM 21.60 39.30

218 9/7/2023 8:26:00 PM 21.50 39.20

219 9/7/2023 8:41:00 PM 21.50 39.20

220 9/7/2023 8:56:00 PM 21.50 39.20

221 9/7/2023 9:11:00 PM 21.50 39.10

222 9/7/2023 9:26:00 PM 21.50 39.00

223 9/7/2023 9:41:00 PM 21.50 38.90

224 9/7/2023 9:56:00 PM 21.50 38.90

225 9/7/2023 10:11:00 PM 21.50 38.80

226 9/7/2023 10:26:00 PM 21.40 38.80

227 9/7/2023 10:41:00 PM 21.40 38.70

228 9/7/2023 10:56:00 PM 21.40 38.70

229 9/7/2023 11:11:00 PM 21.40 38.50

230 9/7/2023 11:26:00 PM 21.40 38.50

231 9/7/2023 11:41:00 PM 21.30 38.50

232 9/7/2023 11:56:00 PM 21.30 38.50

233 9/8/2023 12:11:00 AM 21.30 38.50

234 9/8/2023 12:26:00 AM 21.30 38.50

235 9/8/2023 12:41:00 AM 21.30 38.40

236 9/8/2023 12:56:00 AM 21.20 38.40

237 9/8/2023 1:11:00 AM 21.20 38.30

238 9/8/2023 1:26:00 AM 21.20 38.20

239 9/8/2023 1:41:00 AM 21.20 38.10

240 9/8/2023 1:56:00 AM 21.20 38.00

241 9/8/2023 2:11:00 AM 21.10 37.90

242 9/8/2023 2:26:00 AM 21.10 37.80

243 9/8/2023 2:41:00 AM 21.10 37.70

244 9/8/2023 2:56:00 AM 21.10 37.60

245 9/8/2023 3:11:00 AM 21.00 37.60

246 9/8/2023 3:26:00 AM 21.00 37.40

247 9/8/2023 3:41:00 AM 21.00 37.40

248 9/8/2023 3:56:00 AM 21.00 37.30

249 9/8/2023 4:11:00 AM 20.90 37.20

250 9/8/2023 4:26:00 AM 20.90 37.20

251 9/8/2023 4:41:00 AM 20.90 37.10

252 9/8/2023 4:56:00 AM 20.90 37.10

253 9/8/2023 5:11:00 AM 20.80 37.10

254 9/8/2023 5:26:00 AM 20.80 37.00

255 9/8/2023 5:41:00 AM 20.80 36.80

256 9/8/2023 5:56:00 AM 20.70 36.90


Page 7/7
9/8/2023 2:54:45 PM

ID Date/time Temperature [°C] Humidity [%rH]

257 9/8/2023 6:11:00 AM 20.70 36.90

258 9/8/2023 6:26:00 AM 20.70 36.80

259 9/8/2023 6:41:00 AM 20.70 36.80

260 9/8/2023 6:56:00 AM 20.70 36.90

261 9/8/2023 7:11:00 AM 20.70 36.90

262 9/8/2023 7:26:00 AM 20.70 36.90

263 9/8/2023 7:41:00 AM 20.70 37.00

264 9/8/2023 7:56:00 AM 20.70 37.20

265 9/8/2023 8:11:00 AM 20.70 37.40

266 9/8/2023 8:26:00 AM 20.70 37.50

267 9/8/2023 8:41:00 AM 20.80 37.70

268 9/8/2023 8:56:00 AM 20.80 38.00

269 9/8/2023 9:11:00 AM 20.80 38.20

270 9/8/2023 9:26:00 AM 20.90 38.40

271 9/8/2023 9:41:00 AM 20.90 38.70

272 9/8/2023 9:56:00 AM 21.00 38.90

273 9/8/2023 10:11:00 AM 21.00 39.20

274 9/8/2023 10:26:00 AM 21.10 39.40

275 9/8/2023 10:41:00 AM 21.20 39.50

276 9/8/2023 10:56:00 AM 21.30 39.70

277 9/8/2023 11:11:00 AM 21.30 39.70

278 9/8/2023 11:26:00 AM 21.40 39.90

279 9/8/2023 11:41:00 AM 21.50 40.00

280 9/8/2023 11:56:00 AM 21.50 40.10

281 9/8/2023 12:11:00 PM 21.60 40.00

282 9/8/2023 12:26:00 PM 21.70 40.10

283 9/8/2023 12:41:00 PM 21.70 40.30

284 9/8/2023 12:56:00 PM 21.80 40.20

285 9/8/2023 1:11:00 PM 21.80 40.30

286 9/8/2023 1:26:00 PM 21.90 40.40

287 9/8/2023 1:41:00 PM 21.90 40.60

288 9/8/2023 1:56:00 PM 22.00 40.70

289 9/8/2023 2:11:00 PM 22.00 40.90

Potrebbero piacerti anche